Location: Bremen
(53.0793°N, 8.8017°E)
Time: 23:32:26
(UTC+02:00)

Vanguard 2 Rocket - Pass Details

Date: 19 April 2024
Orbit: 556 x 3304 km, 32.9° (Epoch: 20 May)

Event Time Altitude Azimuth Distance (km) Brightness Sun altitude
Rises 01:48:37 0° 251° (WSW) 7,043 11.2 -25.4°
Reaches altitude 10° 01:53:40 10° 245° (WSW) 6,178 10.8 -25.3°
Maximum altitude 02:10:53 38° 187° (S) 4,195 9.6 -24.9°
Drops below altitude 10° 02:25:27 10° 127° (SE) 5,256 10.6 -24.3°
Sets 02:29:20 0° 120° (ESE) 5,935 10.9 -24.1°
